| time (UTC) | temp F | wind direction | speed MPH | gust MPH | rain 1hr in | rain 24hr in | rain mn in | humidity % | barometer mb |
| 20260507191535 | 67 | 296 | 14.0 | 25.0 | 0.00 | 0.00 | 0.00 | 37 | 1018.3 |
| 20260507190035 | 67 | 294 | 12.0 | 25.0 | 0.00 | 0.00 | 0.00 | 39 | 1018.7 |
| 20260507184620 | 66 | 296 | 13.0 | 25.0 | 0.00 | 0.00 | 0.00 | 41 | 1018.8 |
| 20260507184610 | 65 | 303 | 12.0 | 24.0 | 0.00 | 0.00 | 0.00 | 42 | 1019.0 |
| 20260507181535 | 64 | 298 | 15.0 | 30.0 | 0.00 | 0.00 | 0.00 | 45 | 1018.8 |
| 20260507180033 | 63 | 296 | 13.0 | 27.0 | 0.00 | 0.00 | 0.00 | 47 | 1018.9 |
| 20260507174534 | 63 | 285 | 13.0 | 28.0 | 0.00 | 0.00 | 0.00 | 48 | 1019.2 |
| 20260507173029 | 62 | 285 | 11.0 | 24.0 | 0.00 | 0.00 | 0.00 | 50 | 1019.4 |
| 20260507170109 | 61 | 302 | 13.0 | 23.0 | 0.00 | 0.00 | 0.00 | 53 | 1019.7 |
| 20260507164534 | 60 | 300 | 13.0 | 25.0 | 0.00 | 0.00 | 0.00 | 55 | 1019.8 |
| 20260507163032 | 60 | 297 | 11.0 | 21.0 | 0.00 | 0.00 | 0.00 | 57 | 1020.0 |
| 20260507161533 | 59 | 291 | 11.0 | 24.0 | 0.00 | 0.00 | 0.00 | 59 | 1019.8 |
| 20260507160036 | 59 | 287 | 11.0 | 25.0 | 0.00 | 0.00 | 0.00 | 60 | 1020.0 |
| 20260507154534 | 59 | 287 | 14.0 | 27.0 | 0.00 | 0.00 | 0.00 | 61 | 1019.9 |
| 20260507150046 | 57 | 290 | 15.0 | 27.0 | 0.00 | 0.00 | 0.00 | 66 | 1019.9 |
| 20260507144534 | 56 | 295 | 14.0 | 24.0 | 0.00 | 0.00 | 0.00 | 68 | 1019.9 |
| 20260507143031 | 56 | 300 | 14.0 | 26.0 | 0.00 | 0.00 | 0.00 | 69 | 1019.9 |
| 20260507141535 | 56 | 301 | 12.0 | 24.0 | 0.00 | 0.00 | 0.00 | 70 | 1020.1 |
| 20260507134535 | 55 | 294 | 11.0 | 23.0 | 0.00 | 0.00 | 0.00 | 72 | 1020.1 |
| 20260507133029 | 55 | 295 | 10.0 | 23.0 | 0.00 | 0.00 | 0.00 | 73 | 1020.1 |
| 20260507131536 | 55 | 293 | 10.0 | 19.0 | 0.00 | 0.00 | 0.00 | 72 | 1020.1 |
| 20260507124535 | 55 | 301 | 9.0 | 17.0 | 0.00 | 0.00 | 0.00 | 71 | 1019.9 |
| 20260507123111 | 56 | 299 | 8.0 | 18.0 | 0.00 | 0.00 | 0.00 | 70 | 1019.9 |
| 20260507121532 | 56 | 292 | 7.0 | 16.0 | 0.00 | 0.00 | 0.00 | 70 | 1019.9 |
| 20260507120034 | 56 | 297 | 9.0 | 18.0 | 0.00 | 0.00 | 0.00 | 70 | 1019.7 |
| 20260507114534 | 56 | 295 | 10.0 | 21.0 | 0.00 | 0.00 | 0.00 | 70 | 1019.5 |
| 20260507113033 | 57 | 295 | 11.0 | 22.0 | 0.00 | 0.00 | 0.00 | 70 | 1019.3 |
| 20260507111652 | 57 | 296 | 9.0 | 21.0 | 0.00 | 0.00 | 0.00 | 70 | 1019.2 |
| 20260507104610 | 57 | 295 | 12.0 | 26.0 | 0.00 | 0.00 | 0.00 | 70 | 1018.7 |
| 20260507103035 | 57 | 289 | 11.0 | 24.0 | 0.00 | 0.00 | 0.00 | 71 | 1018.7 |
| 20260507101536 | 58 | 282 | 12.0 | 24.0 | 0.00 | 0.00 | 0.00 | 70 | 1018.6 |
| 20260507094608 | 59 | 283 | 11.0 | 21.0 | 0.00 | 0.00 | 0.00 | 69 | 1018.7 |
| 20260507093110 | 59 | 282 | 11.0 | 21.0 | 0.00 | 0.00 | 0.00 | 70 | 1018.8 |
| 20260507091532 | 59 | 288 | 10.0 | 19.0 | 0.00 | 0.00 | 0.00 | 70 | 1019.0 |
| 20260507090035 | 59 | 294 | 10.0 | 21.0 | 0.00 | 0.00 | 0.00 | 71 | 1019.1 |
| 20260507084535 | 59 | 296 | 8.0 | 19.0 | 0.00 | 0.00 | 0.00 | 71 | 1019.0 |
| 20260507083034 | 59 | 285 | 8.0 | 17.0 | 0.00 | 0.00 | 0.00 | 71 | 1019.0 |
| 20260507081536 | 59 | 280 | 5.0 | 18.0 | 0.00 | 0.00 | 0.00 | 71 | 1019.0 |
| 20260507080034 | 60 | 260 | 7.0 | 20.0 | 0.00 | 0.00 | 0.00 | 71 | 1019.0 |
| 20260507074535 | 60 | 254 | 6.0 | 14.0 | 0.00 | 0.00 | 0.00 | 71 | 1019.0 |
| 20260507073033 | 60 | 244 | 5.0 | 14.0 | 0.00 | 0.00 | 0.00 | 70 | 1018.8 |
| 20260507071536 | 60 | 258 | 8.0 | 22.0 | 0.00 | 0.00 | 0.00 | 70 | 1018.6 |
| 20260507070030 | 61 | 269 | 9.0 | 18.0 | 0.00 | 0.00 | 0.00 | 69 | 1018.5 |
| 20260507064538 | 61 | 269 | 8.0 | 21.0 | 0.00 | 0.00 | 0.00 | 68 | 1018.5 |
| 20260507063032 | 62 | 267 | 8.0 | 20.0 | 0.00 | 0.00 | 0.00 | 68 | 1018.7 |
| 20260507061534 | 62 | 262 | 8.0 | 20.0 | 0.00 | 0.00 | 0.00 | 67 | 1018.8 |
| 20260507060144 | 62 | 261 | 8.0 | 16.0 | 0.00 | 0.00 | 0.00 | 67 | 1018.8 |
| 20260507054533 | 63 | 271 | 9.0 | 22.0 | 0.00 | 0.00 | 0.00 | 66 | 1018.8 |
| 20260507053036 | 63 | 275 | 11.0 | 25.0 | 0.00 | 0.00 | 0.00 | 66 | 1018.8 |
| 20260507051535 | 63 | 266 | 9.0 | 22.0 | 0.00 | 0.00 | 0.00 | 67 | 1019.0 |
| 20260507044534 | 63 | 281 | 10.0 | 22.0 | 0.00 | 0.00 | 0.00 | 65 | 1019.1 |
| 20260507043110 | 64 | 290 | 11.0 | 22.0 | 0.00 | 0.00 | 0.00 | 63 | 1019.2 |
| 20260507041533 | 64 | 296 | 10.0 | 21.0 | 0.00 | 0.00 | 0.00 | 61 | 1019.1 |
| 20260507040152 | 65 | 294 | 9.0 | 20.0 | 0.00 | 0.00 | 0.00 | 59 | 1018.8 |
| 20260507033035 | 66 | 299 | 9.0 | 19.0 | 0.00 | 0.00 | 0.00 | 54 | 1018.6 |
| 20260507030142 | 67 | 294 | 7.0 | 17.0 | 0.00 | 0.00 | 0.00 | 52 | 1018.5 |
| 20260507024536 | 68 | 296 | 9.0 | 21.0 | 0.00 | 0.00 | 0.00 | 51 | 1018.4 |
| 20260507023036 | 68 | 294 | 10.0 | 22.0 | 0.00 | 0.00 | 0.00 | 51 | 1018.2 |
| 20260507021534 | 68 | 293 | 9.0 | 17.0 | 0.00 | 0.00 | 0.00 | 52 | 1018.2 |
| 20260507020037 | 68 | 293 | 11.0 | 24.0 | 0.00 | 0.00 | 0.00 | 51 | 1018.1 |
| 20260507014607 | 68 | 293 | 12.0 | 24.0 | 0.00 | 0.00 | 0.00 | 51 | 1018.0 |
| 20260507011536 | 68 | 291 | 11.0 | 23.0 | 0.00 | 0.00 | 0.00 | 52 | 1017.9 |
| 20260507010036 | 68 | 279 | 10.0 | 22.0 | 0.00 | 0.00 | 0.00 | 52 | 1018.1 |
| 20260507004536 | 69 | 284 | 11.0 | 23.0 | 0.00 | 0.00 | 0.00 | 51 | 1018.0 |
| 20260507003038 | 69 | 289 | 13.0 | 27.0 | 0.00 | 0.00 | 0.00 | 51 | 1017.7 |
| 20260507001537 | 69 | 289 | 13.0 | 25.0 | 0.00 | 0.00 | 0.00 | 51 | 1017.4 |
| 20260506233033 | 70 | 288 | 14.0 | 26.0 | 0.00 | 0.00 | 0.00 | 49 | 1017.1 |
| 20260506231532 | 70 | 286 | 15.0 | 28.0 | 0.00 | 0.00 | 0.00 | 49 | 1016.8 |
| 20260506230039 | 70 | 288 | 16.0 | 29.0 | 0.00 | 0.00 | 0.00 | 49 | 1016.5 |
| 20260506224535 | 70 | 289 | 12.0 | 25.0 | 0.00 | 0.00 | 0.00 | 50 | 1017.0 |
| 20260506223107 | 71 | 279 | 11.0 | 26.0 | 0.00 | 0.00 | 0.00 | 49 | 1017.3 |
| 20260506221536 | 71 | 273 | 10.0 | 22.0 | 0.00 | 0.00 | 0.00 | 49 | 1017.7 |
| 20260506220040 | 71 | 272 | 9.0 | 23.0 | 0.00 | 0.00 | 0.00 | 48 | 1017.9 |
| 20260506214534 | 72 | 293 | 15.0 | 28.0 | 0.00 | 0.00 | 0.00 | 46 | 1017.8 |
| 20260506213033 | 73 | 287 | 14.0 | 24.0 | 0.00 | 0.00 | 0.00 | 46 | 1017.6 |
| 20260506204536 | 72 | 291 | 17.0 | 36.0 | 0.00 | 0.00 | 0.00 | 49 | 1017.6 |
| 20260506200034 | 71 | 287 | 17.0 | 29.0 | 0.00 | 0.00 | 0.00 | 50 | 1017.6 |
| 20260506194609 | 71 | 294 | 19.0 | 35.0 | 0.00 | 0.00 | 0.00 | 51 | 1017.6 |
| 20260506193034 | 71 | 295 | 18.0 | 33.0 | 0.00 | 0.00 | 0.00 | 52 | 1017.6 |